Total_Precipitation_Accumulation
0.00 0.00 0.00 0.03 0.13 0.18 0.17 0.06 0.02 0.02 0.01 0.01 0.01 0.01 0.01 0.01 0.03 0.04 0.00 0.00 0.00 0.00 0.00 0.01 0.00 0.00 0.00 0.00 0.00 0.00 0.00 0.00 0.01 0.01 0.02 0.02 0.01 0.01 0.00 0.00 0.00 0.00 0.01 0.01 0.01 0.01 0.01 0.01 0.00
0.00 0.00 0.00 0.02 0.09 0.18 0.12 0.04 0.02 0.02 0.01 0.02 0.02 0.01 0.00 0.00 0.00 0.00 0.00 0.00 0.00 0.00 0.00 0.00 0.00 0.00 0.00 0.00 0.00 0.00 0.01 0.01 0.01 0.01 0.01 0.01 0.00 0.00 0.00 0.00 0.00 0.01 0.01 0.01 0.02 0.02 0.01 0.01 0.00
0.00 0.00 0.00 0.01 0.03 0.09 0.10 0.04 0.02 0.02 0.03 0.03 0.04 0.02 0.00 0.00 0.00 0.00 0.00 0.00 0.00 0.00 0.00 0.00 0.01 0.00 0.00 0.00 0.00 0.00 0.01 0.01 0.01 0.01 0.01 0.01 0.01 0.01 0.01 0.01 0.01 0.01 0.02 0.03 0.03 0.03 0.03 0.02 0.01
0.00 0.00 0.00 0.00 0.00 0.01 0.01 0.02 0.03 0.03 0.04 0.05 0.05 0.02 0.00 0.00 0.00 0.00 0.00 0.00 0.00 0.00 0.00 0.00 0.01 0.01 0.00 0.00 0.00 0.01 0.01 0.01 0.01 0.01 0.01 0.01 0.01 0.01 0.01 0.01 0.02 0.03 0.05 0.04 0.05 0.05 0.04 0.02 0.01
0.00 0.00 0.00 0.00 0.00 0.00 0.01 0.04 0.07 0.09 0.05 0.05 0.05 0.03 0.01 0.00 0.00 0.00 0.00 0.00 0.00 0.00 0.00 0.00 0.01 0.01 0.01 0.01 0.01 0.01 0.01 0.02 0.01 0.01 0.01 0.01 0.01 0.02 0.02 0.02 0.02 0.03 0.04 0.04 0.05 0.05 0.05 0.03 0.01
0.00 0.00 0.00 0.00 0.00 0.00 0.01 0.06 0.12 0.11 0.06 0.05 0.13 0.09 0.02 0.01 0.01 0.01 0.01 0.01 0.00 0.00 0.00 0.01 0.02 0.02 0.01 0.01 0.01 0.01 0.01 0.01 0.02 0.01 0.01 0.01 0.02 0.02 0.03 0.03 0.03 0.03 0.04 0.04 0.04 0.05 0.05 0.04 0.02
0.00 0.00 0.00 0.00 0.00 0.01 0.02 0.05 0.08 0.09 0.05 0.06 0.16 0.17 0.09 0.04 0.02 0.03 0.03 0.02 0.01 0.01 0.01 0.01 0.03 0.03 0.03 0.02 0.02 0.02 0.02 0.02 0.02 0.02 0.01 0.01 0.02 0.02 0.03 0.03 0.03 0.03 0.04 0.05 0.05 0.05 0.05 0.05 0.04
0.00 0.00 0.00 0.00 0.00 0.01 0.02 0.01 0.02 0.03 0.03 0.03 0.07 0.18 0.25 0.10 0.05 0.06 0.06 0.04 0.04 0.02 0.02 0.02 0.04 0.05 0.06 0.05 0.05 0.05 0.05 0.05 0.03 0.02 0.02 0.02 0.02 0.02 0.03 0.03 0.03 0.04 0.06 0.08 0.10 0.10 0.10 0.10 0.10
0.00 0.00 0.00 0.00 0.00 0.01 0.01 0.01 0.01 0.02 0.02 0.03 0.10 0.20 0.15 0.08 0.08 0.09 0.10 0.08 0.07 0.05 0.05 0.05 0.06 0.08 0.10 0.10 0.11 0.14 0.14 0.14 0.13 0.09 0.05 0.03 0.02 0.01 0.01 0.02 0.05 0.10 0.17 0.23 0.27 0.28 0.29 0.29 0.23
0.00 0.00 0.00 0.00 0.00 0.00 0.01 0.01 0.01 0.01 0.02 0.07 0.10 0.09 0.06 0.08 0.12 0.12 0.12 0.12 0.12 0.11 0.11 0.12 0.12 0.14 0.16 0.16 0.31 0.36 0.34 0.37 0.31 0.30 0.26 0.19 0.14 0.09 0.06 0.09 0.21 0.35 0.50 0.60 0.63 0.74 0.81 0.72 0.52
0.00 0.00 0.00 0.00 0.00 0.00 0.00 0.01 0.01 0.01 0.02 0.06 0.13 0.11 0.17 0.17 0.23 0.19 0.19 0.19 0.20 0.20 0.17 0.17 0.18 0.19 0.20 0.23 0.34 0.49 0.51 0.54 0.52 0.54 0.57 0.59 0.56 0.42 0.35 0.41 0.63 0.77 0.94 0.93 1.05 1.29 1.08 0.97 0.93
0.00 0.00 0.00 0.00 0.00 0.00 0.00 0.01 0.02 0.02 0.03 0.04 0.09 0.13 0.17 0.19 0.22 0.28 0.26 0.22 0.24 0.28 0.31 0.36 0.38 0.37 0.36 0.38 0.39 0.44 0.44 0.50 0.58 0.68 0.81 0.90 0.84 0.83 0.79 0.82 0.91 1.01 1.10 1.19 1.28 1.29 1.26 1.37 1.40
0.00 0.00 0.00 0.00 0.00 0.00 0.00 0.02 0.03 0.03 0.04 0.05 0.07 0.11 0.15 0.21 0.25 0.29 0.29 0.28 0.36 0.52 0.61 0.65 0.65 0.60 0.51 0.40 0.36 0.36 0.40 0.45 0.56 0.68 0.75 0.84 1.02 1.11 1.08 0.93 0.89 0.92 1.06 1.28 1.52 1.56 1.75 1.81 1.60
0.00 0.00 0.00 0.00 0.00 0.00 0.01 0.02 0.03 0.05 0.06 0.09 0.11 0.14 0.17 0.22 0.28 0.34 0.43 0.55 0.73 0.90 0.96 0.97 0.89 0.73 0.66 0.56 0.47 0.48 0.49 0.53 0.56 0.59 0.70 0.87 0.98 1.12 1.07 1.03 1.06 1.06 1.02 1.11 1.44 1.63 1.75 1.67 1.42
0.00 0.00 0.00 0.00 0.00 0.01 0.01 0.03 0.04 0.06 0.10 0.13 0.14 0.16 0.21 0.27 0.37 0.57 0.82 1.11 1.45 1.65 1.48 1.17 0.96 0.84 0.78 0.79 0.76 0.69 0.64 0.59 0.60 0.60 0.67 0.76 0.83 0.92 0.95 0.93 0.90 0.93 0.94 0.94 1.04 1.19 1.31 1.23 1.08
0.00 0.00 0.00 0.00 0.00 0.01 0.02 0.07 0.08 0.09 0.13 0.17 0.18 0.23 0.29 0.42 0.56 0.83 1.20 1.74 2.27 2.46 2.11 1.55 1.34 1.38 1.26 1.12 0.87 0.69 0.62 0.56 0.50 0.48 0.49 0.53 0.55 0.57 0.59 0.58 0.55 0.57 0.56 0.59 0.67 0.74 0.82 0.85 0.88
0.00 0.00 0.01 0.04 0.03 0.02 0.05 0.10 0.13 0.17 0.21 0.20 0.21 0.28 0.35 0.42 0.50 0.65 1.10 1.69 2.40 2.89 2.78 2.22 2.06 2.10 1.58 0.98 0.67 0.52 0.47 0.38 0.35 0.37 0.35 0.37 0.39 0.40 0.43 0.41 0.40 0.38 0.36 0.36 0.38 0.45 0.54 0.61 0.66
0.00 0.01 0.04 0.10 0.08 0.09 0.13 0.15 0.21 0.26 0.25 0.28 0.26 0.27 0.33 0.38 0.40 0.45 0.66 0.92 1.60 2.05 2.00 1.88 1.88 1.53 1.02 0.60 0.41 0.30 0.27 0.23 0.21 0.25 0.27 0.28 0.31 0.33 0.36 0.33 0.32 0.29 0.27 0.28 0.33 0.36 0.39 0.40 0.43
0.00 0.01 0.03 0.07 0.11 0.16 0.20 0.22 0.29 0.34 0.36 0.31 0.28 0.23 0.20 0.26 0.32 0.36 0.40 0.42 0.66 0.82 0.84 0.96 0.93 0.82 0.52 0.36 0.23 0.16 0.14 0.13 0.13 0.16 0.16 0.19 0.23 0.28 0.34 0.29 0.31 0.29 0.23 0.23 0.25 0.28 0.29 0.27 0.27
0.01 0.01 0.04 0.08 0.10 0.13 0.19 0.28 0.45 0.53 0.42 0.35 0.33 0.24 0.19 0.20 0.23 0.20 0.16 0.27 0.31 0.38 0.44 0.47 0.48 0.40 0.24 0.17 0.15 0.13 0.11 0.08 0.07 0.07 0.09 0.09 0.12 0.17 0.23 0.30 0.25 0.25 0.25 0.24 0.23 0.25 0.23 0.21 0.23
0.01 0.02 0.03 0.07 0.07 0.09 0.20 0.45 0.52 0.51 0.43 0.35 0.31 0.24 0.16 0.14 0.09 0.05 0.04 0.08 0.25 0.45 0.39 0.24 0.24 0.19 0.12 0.10 0.10 0.09 0.09 0.09 0.09 0.07 0.07 0.08 0.07 0.09 0.14 0.21 0.24 0.27 0.24 0.27 0.31 0.28 0.25 0.19 0.19
0.02 0.02 0.01 0.01 0.03 0.17 0.26 0.51 0.61 0.52 0.53 0.37 0.29 0.25 0.10 0.05 0.02 0.02 0.03 0.05 0.14 0.26 0.26 0.20 0.19 0.18 0.11 0.08 0.07 0.06 0.06 0.07 0.07 0.07 0.06 0.07 0.06 0.07 0.08 0.10 0.15 0.22 0.26 0.33 0.25 0.28 0.28 0.23 0.18
0.01 0.01 0.01 0.01 0.03 0.07 0.17 0.47 0.68 0.53 0.56 0.35 0.21 0.14 0.06 0.02 0.01 0.00 0.00 0.01 0.02 0.05 0.11 0.14 0.20 0.25 0.17 0.13 0.09 0.08 0.06 0.05 0.06 0.06 0.07 0.08 0.10 0.11 0.12 0.12 0.11 0.12 0.19 0.26 0.29 0.35 0.31 0.30 0.26
0.00 0.01 0.03 0.06 0.08 0.17 0.25 0.32 0.57 0.43 0.31 0.17 0.10 0.05 0.03 0.02 0.01 0.01 0.00 0.00 0.01 0.04 0.06 0.08 0.14 0.19 0.17 0.14 0.13 0.14 0.14 0.13 0.11 0.11 0.11 0.14 0.17 0.19 0.19 0.20 0.20 0.19 0.17 0.17 0.19 0.23 0.29 0.33 0.33
0.01 0.01 0.08 0.16 0.20 0.28 0.16 0.37 0.68 0.33 0.18 0.08 0.05 0.03 0.02 0.01 0.01 0.01 0.01 0.01 0.01 0.03 0.03 0.03 0.05 0.08 0.10 0.09 0.10 0.15 0.23 0.29 0.29 0.25 0.22 0.20 0.21 0.23 0.23 0.22 0.24 0.27 0.27 0.24 0.20 0.15 0.20 0.28 0.31
0.00 0.01 0.02 0.02 0.05 0.12 0.19 0.74 0.61 0.17 0.09 0.05 0.02 0.01 0.01 0.01 0.01 0.01 0.01 0.01 0.01 0.01 0.01 0.01 0.01 0.01 0.02 0.03 0.05 0.07 0.11 0.18 0.26 0.31 0.30 0.30 0.32 0.27 0.23 0.21 0.22 0.26 0.29 0.31 0.28 0.22 0.20 0.22 0.26
0.01 0.00 0.00 0.01 0.01 0.06 0.21 0.38 0.21 0.05 0.03 0.02 0.01 0.01 0.01 0.00 0.00 0.00 0.00 0.00 0.00 0.00 0.00 0.00 0.00 0.00 0.00 0.00 0.01 0.01 0.02 0.03 0.06 0.10 0.14 0.21 0.31 0.30 0.24 0.20 0.19 0.21 0.25 0.29 0.31 0.29 0.29 0.26 0.23
0.01 0.00 0.00 0.00 0.00 0.03 0.12 0.26 0.27 0.08 0.03 0.02 0.01 0.01 0.00 0.00 0.00 0.00 0.00 0.00 0.00 0.00 0.00 0.00 0.00 0.00 0.00 0.00 0.00 0.00 0.01 0.01 0.02 0.03 0.04 0.06 0.11 0.14 0.15 0.15 0.15 0.16 0.18 0.22 0.27 0.33 0.38 0.40 0.36
0.00 0.00 0.00 0.00 0.00 0.01 0.03 0.08 0.09 0.06 0.03 0.02 0.01 0.00 0.00 0.00 0.00 0.00 0.00 0.00 0.00 0.00 0.00 0.00 0.00 0.00 0.00 0.00 0.00 0.00 0.00 0.00 0.00 0.01 0.01 0.01 0.02 0.02 0.03 0.05 0.07 0.09 0.10 0.14 0.18 0.25 0.36 0.49 0.57
0.00 0.01 0.01 0.01 0.01 0.01 0.01 0.01 0.01 0.01 0.01 0.00 0.00 0.00 0.00 0.00 0.00 0.00 0.00 0.00 0.00 0.00 0.00 0.00 0.00 0.00 0.00 0.00 0.00 0.00 0.00 0.00 0.00 0.00 0.00 0.00 0.00 0.00 0.01 0.01 0.02 0.02 0.03 0.06 0.09 0.15 0.22 0.34 0.50